Regional Weather Roundup
Issued by NWS

Home | Current Version | Previous Version | Text Only | Print | Product List | Glossary Off
Versions: 1 2 3 4 5 6 7 8 9 10 11 12 13 14 15 16 17 18 19 20 21 22 23 24 25 26 27 28 29 30 31 32 33 34 35 36 37 38 39 40 41 42 43 44 45 46 47 48 49 50

000
ASUS43 KTOP 272259
RWRKS

WEATHER ROUNDUP FOR KANSAS
NATIONAL WEATHER SERVICE GOODLAND KS
600 PM CDT THU AUG 27 2015

NOTE:  "FAIR" INDICATES FEW OR NO CLOUDS BELOW 12,000 FEET WITH NO
SIGNIFICANT WEATHER AND/OR OBSTRUCTIONS TO VISIBILITY.

KSZ001>006-013>018-027>032-041>047-280000-
NORTHWEST KANSAS

CITY           SKY/WX    TMP DP  RH WIND       PRES   REMARKS
GOODLAND       PTSUNNY   94  47  20 NW17      29.92F
HAYS           PTSUNNY   93  63  36 S36G44    29.80F
HILL CITY      CLOUDY    99  53  21 SW21G26   29.80F HX  96
RUSSELL        PTSUNNY   87  63  44 S31G39    29.81F
$$

KSZ061>065-074>080-084>089-280000-
SOUTHWEST KANSAS

CITY           SKY/WX    TMP DP  RH WIND       PRES   REMARKS
DODGE CITY     PTSUNNY   91  57  31 SE21G26   29.89F
ELKHART          N/A     92  56  29 S7          N/A
GARDEN CITY    PTSUNNY   85  60  42 S8        29.88F
GREAT BEND     PTSUNNY   86  63  45 S24G30    29.89R
LIBERAL        MOSUNNY   93  57  29 S15G28    29.90F
PRATT          PTSUNNY   82  63  51 S17G30    29.93S
$$

KSZ066>073-081>083-090>101-280000-
SOUTHEAST KANSAS

CITY           SKY/WX    TMP DP  RH WIND       PRES   REMARKS
CHANUTE        MOSUNNY   75  69  81 SE12      30.00F
COFFEYVILLE    PTSUNNY   81  69  67 SE13      30.01S
HUTCHINSON     PTSUNNY   88  66  48 S25G33    29.89F
NEWTON         PTSUNNY   88  63  42 S15G21    29.95F
WICHITA INTL   PTSUNNY   88  66  48 S15       29.92F
WICHITA JABRA  MOSUNNY   85  64  49 S16       29.93F
WINFIELD       MOSUNNY   87  65  47 SE15      29.96F
$$

KSZ007>012-019>026-033>040-048>060-102>105-280000-
NORTHEAST KANSAS

CITY           SKY/WX    TMP DP  RH WIND       PRES   REMARKS
CONCORDIA      PTSUNNY   84  62  47 S24G31    29.86F
EMPORIA        CLOUDY    75  67  76 SE14      29.96F
LAWRENCE       MOSUNNY   76  66  71 SE12      29.96F
MANHATTAN      CLOUDY    83  66  56 SE14G21   29.92F
OLATHE IND     PTSUNNY   72  67  84 SE9       29.99F
OLATHE EXE     PTSUNNY   69  66  90 S10       29.98F
SALINA         PTSUNNY   89  66  46 S22G29    29.87F
TOPEKA BILLARD CLOUDY    77  65  66 SE10G21   29.95F
TOPEKA FORBES  CLOUDY    77  65  66 S10       29.95F
$$


USA.gov is the U.S. government's official web portal to all federal, state and local government web resources and services.